Wind_Speed
21 21 21 22 23 24 25 26 27 28 28 29 29 30 31 31 32 33 35 36 37 37 39 41 41 40 39 38 38 37 37 35 34 33 33 32 30 29 27 25 23 21 18 15 13 12 11 10 8 6 5 5 6 8 9 11 13 16 17 19 21 22 23 23 23 23 23 24 25 26 27 27 27 26 26 26 26 26 26 27 27 28 29 30 31 32 33 34
20 20 20 21 21 22 23 24 25 26 26 26 27 28 28 29 30 32 33 34 33 34 36 36 35 34 33 32 31 30 29 28 28 29 29 28 26 26 24 22 20 18 15 13 13 12 11 8 6 4 4 3 5 6 7 8 6 6 8 9 10 11 10 11 11 12 12 13 14 15 16 16 16 17 17 18 18 19 20 21 22 23 24 26 27 28 29 30
18 19 19 19 19 20 21 22 23 23 23 24 24 25 26 27 28 30 30 29 29 31 32 31 29 28 27 26 24 23 23 23 25 26 26 25 24 24 23 21 21 20 19 19 19 19 18 16 15 14 13 11 11 10 12 14 15 13 9 7 8 8 8 8 7 7 7 6 7 7 7 7 8 8 9 10 10 11 12 14 15 17 19 20 21 22 23 24
17 17 17 17 18 19 20 20 20 20 21 21 22 23 24 25 26 26 26 25 26 27 27 25 24 23 21 19 18 18 20 22 23 23 23 23 23 23 22 23 24 23 23 24 24 24 23 23 23 24 23 21 18 17 19 21 21 22 19 15 15 15 15 14 13 12 11 10 9 9 8 7 6 4 3 2 2 3 5 8 10 12 13 15 16 17 19 21
15 16 16 16 17 17 18 18 18 18 18 19 21 22 21 22 22 22 22 22 23 24 23 20 18 17 15 14 15 16 19 20 20 21 22 22 22 23 24 25 26 26 26 27 27 27 27 28 29 30 29 27 26 26 27 26 25 27 25 22 21 21 20 19 18 17 16 15 14 13 12 11 9 8 7 5 2 1 3 5 7 9 11 13 14 15 17 18
14 15 15 15 15 16 17 17 17 16 17 18 19 19 18 18 19 19 19 19 19 19 18 16 13 12 11 11 13 15 17 18 20 22 21 20 22 24 25 27 27 28 28 29 29 30 31 33 35 36 34 32 34 35 34 32 30 30 28 26 24 24 23 23 22 21 21 20 19 17 15 13 12 11 9 6 4 4 5 7 8 10 11 11 12 13 14 14
13 14 14 14 14 15 15 15 15 15 16 16 17 16 15 15 16 16 16 16 16 14 14 12 10 9 9 10 12 15 16 18 20 22 20 19 22 24 26 27 28 30 31 31 30 31 34 37 36 35 36 36 38 38 37 36 33 30 29 28 26 26 26 26 26 25 23 22 20 19 16 13 12 12 10 7 6 7 7 8 8 8 8 8 9 10 11 13
12 13 13 13 13 13 14 13 13 14 14 14 14 14 13 14 13 13 13 13 11 9 9 10 9 8 8 10 12 14 16 17 20 21 19 19 21 23 26 28 29 30 31 29 28 29 32 35 34 33 36 38 38 37 36 35 33 31 31 29 29 28 28 27 26 24 23 21 19 17 14 11 11 12 10 8 8 8 7 7 7 7 8 10 11 12 14 16
12 12 12 12 12 12 12 12 12 12 13 13 13 12 11 11 10 10 10 9 6 6 7 8 9 9 9 10 11 12 12 16 21 21 20 21 22 22 24 26 27 27 27 27 28 30 31 33 34 34 35 36 35 34 32 31 30 30 29 28 27 26 25 24 24 24 22 21 18 13 9 9 10 11 10 9 8 8 9 10 11 13 13 14 15 15 17 19
11 11 12 12 11 11 11 11 11 11 11 11 11 10 9 8 7 8 8 5 4 4 5 6 8 9 9 11 10 8 10 17 22 21 21 23 24 23 23 24 26 27 28 29 31 33 33 32 34 33 32 33 33 32 30 28 28 27 27 26 24 23 22 21 23 23 19 18 16 10 7 8 10 11 11 10 10 12 15 16 16 16 16 16 16 17 19 20
11 11 11 11 11 11 11 10 10 10 10 9 8 7 5 5 5 5 4 3 2 4 5 5 7 8 9 10 9 9 13 20 22 21 22 24 24 25 25 25 27 28 30 30 30 31 30 28 29 29 28 30 31 30 28 27 27 26 26 26 26 25 24 22 22 20 17 16 14 8 6 7 9 11 12 13 15 17 19 19 18 17 16 16 17 18 20 21
11 11 11 11 11 11 10 10 10 9 8 7 6 4 3 3 2 2 1 1 2 4 4 4 6 7 8 10 11 14 17 19 21 22 23 24 25 25 25 24 25 27 28 27 27 27 25 25 25 26 26 26 27 27 26 26 25 25 26 26 27 26 25 23 21 18 16 15 12 7 5 7 8 11 15 17 19 20 20 19 18 17 17 17 18 19 20 22
11 11 10 11 11 11 11 10 9 8 6 6 4 2 1 0 1 0 2 2 3 4 3 3 5 6 8 11 14 17 18 19 21 22 23 23 24 23 22 22 22 24 24 24 24 23 23 23 23 24 24 23 23 25 24 25 25 26 27 27 27 25 23 22 20 17 15 14 13 10 8 9 10 14 18 20 20 20 20 19 18 17 17 17 18 19 21 22
12 12 11 11 11 11 11 10 9 7 5 5 2 1 1 1 2 2 4 4 4 4 3 2 3 6 8 12 15 18 19 21 21 22 23 22 22 22 22 21 20 19 19 19 20 20 21 23 22 23 24 21 21 22 22 24 27 28 28 27 25 23 22 24 24 22 19 16 16 15 14 13 14 17 20 20 20 20 19 18 17 17 17 17 18 19 20 21
12 12 12 11 12 12 12 10 9 7 5 4 2 2 2 3 3 4 6 6 5 5 4 2 2 5 8 12 16 18 21 22 20 21 22 22 21 21 22 22 20 18 17 16 17 18 19 22 23 24 24 23 23 24 24 26 29 30 28 26 24 23 23 25 27 26 22 19 17 17 17 16 17 19 20 20 20 20 19 18 17 16 17 17 18 19 19 20
12 12 12 12 12 13 13 11 9 7 5 4 3 3 3 4 4 5 7 8 6 5 4 4 3 5 8 11 14 17 19 20 19 19 21 23 22 20 21 23 23 21 18 17 18 19 20 23 26 26 26 25 26 28 29 30 30 30 29 27 25 25 25 25 26 25 22 20 19 18 18 18 18 18 18 19 20 20 19 18 17 17 17 17 18 18 18 19
11 12 13 13 13 13 13 12 10 7 5 5 5 5 5 5 5 5 7 7 6 5 4 5 5 7 9 10 12 15 17 17 18 18 19 22 22 20 22 24 24 24 24 24 25 25 26 27 29 28 28 28 29 31 32 32 32 31 30 29 28 27 26 25 24 22 21 21 20 19 18 18 17 17 18 19 20 20 18 17 17 17 16 16 16 17 17 18
11 12 13 13 14 13 13 11 10 7 5 6 7 7 7 6 6 6 7 6 6 4 4 5 6 8 10 11 11 12 15 16 16 16 17 20 21 19 21 24 24 25 27 30 30 31 31 31 31 30 30 31 32 33 34 33 33 31 30 30 28 27 25 23 22 21 21 21 21 20 17 16 16 16 18 19 19 19 18 17 17 16 15 15 15 16 16 17
10 12 12 13 14 14 13 11 10 8 7 6 8 9 9 9 8 8 7 6 5 4 4 5 7 8 8 9 10 10 12 15 15 13 14 19 20 18 21 24 24 23 24 27 29 31 32 33 33 33 33 33 33 34 34 34 33 32 31 29 28 26 25 24 22 22 22 21 20 19 17 15 15 16 18 18 18 18 17 16 15 15 14 14 14 15 16 16
9 11 12 13 14 14 13 12 11 10 8 7 8 10 11 11 10 8 7 6 5 5 5 7 8 8 7 7 9 11 14 15 15 12 13 18 19 18 22 24 24 23 22 24 27 30 32 33 34 34 34 33 33 33 33 34 33 32 31 30 28 27 26 25 23 22 21 21 20 18 17 16 15 17 18 17 17 17 17 16 14 14 13 13 13 14 15 15
8 10 11 13 15 15 14 13 13 12 10 9 8 10 12 13 12 10 9 8 7 7 7 8 8 8 7 6 7 10 15 16 14 12 13 17 19 20 23 25 26 25 25 26 28 30 32 34 34 33 32 31 30 29 30 30 30 29 28 27 26 26 25 23 22 20 19 19 19 18 17 16 16 17 18 17 17 17 16 16 14 13 13 12 11 12 13 14
7 9 11 13 14 15 15 15 15 14 12 11 10 11 12 14 14 13 12 11 9 8 8 8 9 8 7 6 6 8 11 14 16 16 16 18 20 22 25 26 27 27 28 29 29 29 30 32 33 31 30 28 27 26 26 26 26 26 25 24 23 23 23 22 20 19 18 17 17 17 17 16 16 17 18 17 16 16 16 16 14 13 12 11 11 11 12 13
6 8 10 12 13 15 16 16 16 16 14 13 13 12 13 14 15 14 14 13 11 10 9 9 9 9 8 8 8 9 11 14 18 18 18 20 21 23 25 26 26 26 27 28 27 27 27 28 30 30 28 26 25 23 23 23 23 23 22 21 20 19 20 20 20 19 18 17 16 16 15 16 17 17 17 16 15 15 16 16 15 13 12 12 12 12 12 13
5 7 9 12 13 14 15 16 17 17 17 16 15 15 15 16 16 16 15 15 14 13 12 11 11 11 10 12 13 14 15 16 19 19 19 21 22 23 26 26 24 23 24 25 25 24 23 24 26 27 26 24 23 22 21 21 21 21 21 20 19 18 18 19 20 19 18 17 16 16 16 17 19 18 17 17 16 16 17 17 15 13 13 13 13 12 12 13
5 6 8 11 12 13 14 16 17 18 18 18 17 17 18 18 19 19 18 17 16 16 16 15 14 14 14 16 17 18 19 20 20 21 22 22 22 24 26 26 23 21 21 22 22 22 21 21 22 23 23 22 21 20 19 19 19 19 19 20 20 18 17 18 19 19 19 19 18 17 18 19 21 20 18 17 17 17 17 18 16 14 13 13 12 12 12 13
5 6 7 9 11 12 13 15 17 18 19 19 19 19 20 20 21 21 21 20 19 19 19 18 18 17 18 19 20 21 23 23 22 22 23 23 23 25 26 25 22 20 19 19 19 19 19 20 20 20 21 21 20 18 17 16 16 17 18 20 21 19 17 18 19 20 21 21 20 19 19 20 21 20 18 17 17 17 18 18 16 13 12 12 12 12 13 14
7 6 7 7 9 11 12 14 16 17 18 19 20 20 21 22 23 24 24 23 22 22 22 22 21 21 21 21 22 24 24 23 22 22 22 21 22 24 24 22 22 21 20 19 17 16 17 18 18 19 20 21 19 17 16 16 16 17 18 20 20 20 19 19 20 21 21 20 20 20 19 20 20 18 17 16 16 17 17 17 15 12 11 11 12 12 13 15
8 8 7 7 7 9 11 13 15 16 17 19 20 20 21 22 23 24 25 24 23 23 24 24 22 22 22 23 24 24 22 21 21 21 20 20 20 21 21 20 20 20 20 19 16 15 16 17 18 20 20 20 19 18 18 18 17 17 18 18 19 19 19 20 20 19 19 19 18 18 17 18 18 17 15 15 15 16 16 15 14 12 11 12 13 14 15 16
9 9 8 7 6 8 11 13 14 15 16 18 19 19 19 20 21 24 25 24 23 23 24 24 22 21 22 23 25 23 20 19 19 19 19 18 18 19 18 18 18 18 20 20 17 16 17 18 20 21 20 19 19 18 19 18 18 18 18 18 17 17 18 19 19 18 17 17 17 16 15 17 17 16 15 14 14 15 14 13 13 12 12 13 14 15 16 17
10 10 10 9 7 8 10 12 13 14 15 17 18 19 19 19 20 24 25 23 23 23 23 23 22 21 21 22 23 21 19 18 17 17 18 17 18 18 17 17 18 18 19 20 19 18 19 19 21 21 20 19 18 18 18 18 18 18 18 17 16 16 16 16 16 16 15 15 16 15 14 16 16 15 15 14 14 14 14 14 14 14 15 16 17 18 18 19
12 11 11 11 10 9 10 12 13 13 14 16 17 18 19 18 20 24 24 22 22 24 24 23 22 22 22 22 22 20 19 18 17 18 19 18 18 19 19 18 19 18 18 19 19 18 19 19 20 20 19 17 17 16 16 16 17 17 16 16 15 15 15 15 14 14 14 15 15 15 15 16 17 15 15 15 14 14 15 16 16 17 17 17 18 20 20 21
14 13 12 12 12 10 10 11 13 13 14 15 16 17 18 19 20 23 22 21 23 24 24 23 21 21 23 23 21 21 20 19 17 18 19 19 19 19 19 19 20 19 18 18 17 17 18 18 18 18 17 16 15 14 14 14 14 14 14 15 15 15 14 14 14 13 14 15 15 15 16 18 18 16 15 15 15 15 16 16 16 17 18 18 18 19 21 22
17 15 14 13 13 12 11 11 13 13 13 14 15 15 16 17 19 21 20 20 23 24 23 23 22 22 23 22 21 21 21 19 18 18 19 20 20 19 18 19 19 19 18 17 17 17 17 17 16 16 15 14 14 13 13 12 11 11 12 13 15 14 14 15 14 13 13 14 14 14 15 17 17 17 17 16 15 16 16 16 16 17 18 18 19 19 20 21
19 17 16 15 14 13 13 12 13 13 13 13 13 13 13 14 16 18 19 18 20 22 22 21 20 21 22 20 19 20 20 19 18 17 18 19 19 18 18 19 19 18 17 17 16 16 16 15 14 14 14 13 13 12 12 10 10 10 11 13 15 14 14 14 14 13 13 14 14 14 15 16 15 15 15 16 16 17 17 17 18 17 17 18 19 20 20 20
22 20 18 17 16 15 14 14 14 14 14 13 12 12 12 12 13 15 16 15 15 18 20 20 18 18 19 18 17 18 19 18 16 16 16 17 17 16 16 17 17 16 15 15 14 14 13 12 12 12 12 12 11 11 10 9 9 9 11 14 14 13 13 13 12 13 14 14 14 14 14 14 13 12 13 14 15 16 17 18 18 17 17 18 19 21 22 21
24 22 21 20 19 17 16 16 16 16 15 14 13 12 11 11 12 12 13 12 11 12 15 17 17 16 15 16 15 15 16 16 14 14 14 14 14 14 14 14 15 14 13 12 12 11 10 9 9 10 10 10 10 9 9 9 9 9 11 12 12 12 12 11 11 12 13 13 13 12 12 11 11 11 12 12 13 14 16 17 17 17 17 19 20 21 22 22
26 25 24 23 21 20 19 17 17 18 17 15 14 12 12 12 11 11 12 11 10 10 10 11 14 14 13 13 12 12 13 14 13 11 11 11 11 11 11 11 11 11 9 9 9 8 8 7 7 8 8 8 8 8 8 8 8 8 9 10 10 10 10 10 11 12 12 12 12 11 10 10 11 12 13 13 13 13 15 17 19 20 20 20 21 21 22 23
29 28 27 25 24 22 21 20 19 20 19 18 16 14 13 13 12 12 12 11 10 9 8 8 9 11 11 11 10 10 10 10 10 9 9 8 8 9 9 8 8 7 6 6 6 6 6 5 5 6 6 6 7 7 6 6 6 7 8 9 10 10 10 10 10 11 11 11 11 11 11 11 12 13 15 16 16 16 16 18 20 23 24 24 23 23 23 24
31 30 29 28 26 25 24 23 22 22 22 21 19 17 16 15 14 14 13 12 11 10 9 9 8 8 9 8 8 7 7 7 8 7 6 5 5 6 6 5 4 4 4 4 4 4 4 4 4 4 5 5 6 6 5 5 5 6 7 8 9 10 10 10 10 11 11 11 12 12 11 11 11 12 14 16 18 19 20 20 21 22 24 26 26 26 25 25
33 32 31 30 29 28 27 26 25 24 24 23 22 20 18 18 17 16 15 14 13 12 11 11 10 8 7 7 6 5 5 6 6 4 3 3 3 4 4 2 2 2 2 3 3 3 3 4 4 4 4 4 5 5 4 4 4 4 5 6 8 8 9 10 10 10 11 11 12 13 13 13 12 12 14 16 18 19 21 22 23 23 25 26 27 27 27 26
34 34 33 32 32 31 29 28 27 27 26 25 23 22 21 21 21 19 17 16 14 13 13 11 10 9 8 7 6 5 5 5 5 3 2 1 0 1 1 1 2 3 3 3 4 4 3 3 4 3 3 3 3 3 3 3 2 3 3 4 5 6 6 7 8 8 9 10 12 13 14 16 16 15 15 17 19 20 21 22 23 24 25 26 27 28 28 28
34 35 35 35 34 33 32 31 30 29 28 27 25 23 23 23 23 22 20 19 17 16 15 13 11 10 10 9 8 8 7 6 5 5 5 4 3 4 4 4 5 5 5 5 5 5 3 3 3 3 2 2 2 2 1 1 1 2 2 3 4 4 4 5 6 6 8 9 11 12 13 16 19 19 18 19 20 21 21 22 23 24 25 25 26 27 28 28
32 34 35 36 36 35 34 33 33 32 30 28 27 26 25 25 25 23 22 22 21 19 18 16 14 14 13 12 11 11 10 9 8 7 8 8 7 8 8 8 7 6 6 6 5 5 4 3 3 3 3 3 2 2 2 2 2 2 3 3 3 4 5 6 7 8 9 10 12 14 15 17 20 22 21 21 22 22 22 23 24 24 25 25 25 26 27 28
32 33 34 36 37 37 37 36 35 34 32 30 29 29 29 28 27 24 23 24 23 22 20 19 18 17 15 14 13 12 12 12 11 11 11 10 10 11 10 9 7 6 6 6 6 6 5 3 3 4 4 4 4 4 4 4 3 4 4 5 5 6 7 8 9 10 11 12 14 16 17 18 20 22 23 23 23 24 24 25 25 25 26 26 26 26 26 27
33 33 33 34 36 37 38 38 37 36 34 32 32 32 31 31 29 27 26 25 24 23 22 22 21 20 18 16 14 14 14 14 14 13 12 11 11 12 12 9 6 6 7 8 7 7 7 5 4 5 5 6 6 6 6 5 5 5 6 7 8 9 10 11 12 13 14 14 15 17 17 19 21 22 24 24 25 25 26 26 26 27 27 27 26 25 25 26
34 34 33 34 35 35 37 39 39 38 36 34 34 33 32 32 30 29 28 26 25 24 23 23 24 23 21 19 17 15 15 15 15 14 13 12 12 13 12 9 8 8 9 10 10 9 9 8 7 7 8 9 9 9 8 8 8 8 9 11 12 12 12 13 15 16 17 17 17 18 19 20 22 23 25 25 26 27 27 27 27 26 26 26 25 24 24 23
37 35 34 35 34 34 36 38 39 39 38 36 35 34 33 32 31 30 30 29 28 28 26 26 26 26 24 21 19 16 15 16 17 16 15 14 13 14 14 12 11 12 12 12 12 12 12 12 11 11 11 12 13 13 12 11 11 12 12 13 15 15 14 15 16 16 17 19 19 20 21 22 23 24 26 26 26 26 26 26 25 23 22 23 23 22 21 20
40 38 36 35 35 35 36 37 38 38 38 37 36 36 35 34 33 32 32 32 32 32 31 29 28 27 26 23 21 19 19 20 20 20 18 17 16 16 16 16 15 15 15 14 14 14 14 13 13 13 14 15 16 16 15 14 13 13 14 15 16 17 18 19 19 19 19 21 22 22 23 23 24 25 26 26 24 22 21 21 21 21 20 20 20 19 19 19
43 41 38 36 36 36 37 37 37 37 36 35 36 38 37 36 36 35 34 34 34 34 34 32 31 30 28 26 24 23 23 23 23 23 22 21 20 19 19 18 18 17 17 16 15 16 16 15 15 15 15 17 18 19 18 17 16 15 15 16 18 19 21 22 23 23 23 24 24 24 25 25 25 25 25 22 19 18 18 19 20 20 20 19 18 18 18 18
46 43 41 38 37 37 38 38 37 37 35 33 34 37 39 38 37 37 36 36 35 35 35 34 33 33 31 29 28 27 26 26 26 25 25 25 24 23 21 20 19 19 19 19 18 18 19 18 17 17 18 19 20 21 21 21 20 19 19 20 20 21 22 23 24 25 26 26 26 26 26 24 22 22 20 17 16 16 16 18 18 19 19 19 19 19 19 19
49 47 44 41 39 39 39 39 38 37 36 33 33 35 37 39 39 38 38 38 37 37 37 35 34 34 33 32 31 30 29 29 29 28 28 28 27 26 24 22 21 20 21 22 22 22 22 22 21 21 21 22 23 24 24 23 23 22 22 23 22 22 23 23 24 26 27 27 26 24 22 19 17 18 17 15 14 15 15 16 18 18 19 19 19 20 20 20
51 50 48 45 42 41 40 40 39 39 38 36 34 33 35 37 39 39 39 40 39 38 38 37 35 35 34 33 33 32 31 31 30 30 30 30 30 29 28 26 24 23 23 24 25 25 26 25 25 25 24 24 24 25 25 25 25 24 24 24 24 23 24 24 25 26 27 25 23 20 17 15 15 17 17 15 15 16 16 16 17 18 19 20 20 21 22 23
Wind_Direction
283 283 282 282 282 281 280 279 279 278 279 280 281 281 281 281 280 278 278 278 279 280 280 281 284 287 291 294 297 300 303 307 313 318 324 328 331 334 336 337 337 331 325 323 323 323 320 314 308 297 279 256 238 229 222 223 229 230 232 235 236 237 238 240 241 244 247 249 252 255 256 258 260 262 263 264 265 266 267 269 270 272 274 276 278 281 283 285
281 281 281 281 280 279 279 279 279 280 282 283 283 282 281 280 278 277 277 279 281 281 281 284 288 293 297 301 304 308 313 319 325 330 334 337 343 347 349 352 355 355 358 6 14 18 17 20 31 53 88 125 147 159 161 153 161 186 203 212 215 217 218 222 227 232 238 242 245 247 249 252 255 257 259 261 262 264 265 267 269 271 274 278 281 284 288 290
282 282 283 283 282 282 282 282 283 285 286 286 284 282 279 278 277 278 280 282 283 282 284 289 294 298 303 308 314 321 327 331 334 337 340 346 354 357 360 7 15 20 28 37 44 47 49 56 64 72 78 83 95 110 118 111 105 102 102 118 133 137 142 149 157 165 175 186 198 207 213 222 229 236 243 250 255 261 265 268 272 276 281 286 290 294 297 299
285 287 288 288 288 287 287 288 289 290 289 286 282 279 279 279 280 281 284 285 284 285 289 295 300 304 311 319 329 336 336 339 341 343 348 357 5 10 15 23 30 35 42 49 55 60 64 68 72 74 75 78 86 94 100 99 99 96 92 94 104 109 113 117 121 125 128 131 135 138 146 154 158 159 162 190 240 265 274 279 285 291 297 301 304 306 308 308
292 294 295 295 294 293 293 293 293 292 289 284 280 280 282 283 284 286 287 287 287 290 294 299 307 315 324 334 342 344 343 345 347 348 355 7 20 28 33 37 41 45 51 58 63 68 72 74 75 75 75 79 83 84 87 90 92 94 94 94 96 100 104 109 111 112 114 115 115 117 120 115 108 102 95 89 85 17 311 309 313 317 319 319 319 318 317 317
299 301 301 300 299 298 297 296 295 293 288 284 283 285 287 286 287 288 288 288 289 294 299 305 321 333 341 347 351 354 352 349 350 352 359 20 37 43 45 47 50 54 57 62 67 72 75 76 76 78 79 82 84 85 87 89 90 94 96 96 97 100 104 106 106 106 106 105 104 102 98 95 95 91 78 63 45 18 357 349 342 337 333 330 329 328 328 329
306 306 306 306 305 303 301 299 298 293 290 289 290 291 289 288 287 287 287 289 293 300 307 320 342 354 357 357 2 5 357 351 356 1 10 33 47 48 50 52 54 57 59 60 65 72 78 81 84 88 89 87 87 89 91 91 92 95 99 101 102 101 101 100 99 99 100 99 98 94 90 89 90 83 69 49 33 22 12 3 353 349 350 351 353 354 356 359
311 311 312 313 312 309 306 305 302 297 296 296 294 293 290 288 286 286 288 292 299 311 325 341 359 9 10 9 14 11 1 7 16 16 24 41 49 51 56 58 59 62 63 64 67 74 82 87 90 90 87 84 83 84 85 87 89 92 95 97 97 95 95 96 97 97 96 92 88 87 91 90 87 82 70 49 32 25 26 27 29 34 35 32 28 24 23 23
319 318 320 320 319 317 314 314 310 305 304 301 297 295 291 288 287 285 290 299 312 334 351 3 9 13 14 18 25 19 14 31 34 28 34 43 45 51 61 65 65 67 70 71 72 71 73 79 81 80 80 80 81 81 81 84 86 87 88 88 88 90 93 96 98 95 91 88 82 78 81 84 85 79 66 50 41 48 59 61 59 55 49 44 41 38 37 38
327 327 329 329 327 326 326 326 320 314 311 304 298 296 292 290 286 286 297 314 336 4 23 24 15 14 18 25 30 25 36 48 44 39 43 43 42 48 57 64 65 64 64 64 64 63 61 66 73 77 80 83 83 83 83 84 85 85 85 86 87 90 93 97 98 93 89 86 81 71 61 69 78 73 66 63 67 72 71 66 61 56 52 50 48 48 49 49
335 336 338 337 335 335 336 337 328 320 314 304 300 299 294 289 287 292 310 337 12 37 50 38 22 20 24 29 33 41 56 60 56 51 48 47 48 49 52 59 63 63 62 59 59 59 58 61 69 75 79 82 84 84 85 86 87 89 91 92 90 87 85 83 85 90 93 86 77 69 52 52 62 70 76 79 78 75 70 65 61 59 57 55 55 56 57 57
343 344 347 344 344 344 346 347 336 326 317 308 305 301 292 287 290 305 342 35 59 68 66 45 30 28 25 27 42 54 63 68 66 59 51 50 53 53 52 57 63 65 66 65 62 63 63 62 67 74 75 79 85 89 93 94 93 93 93 92 88 83 80 77 75 82 92 89 80 72 52 49 61 79 87 84 79 74 70 68 65 62 59 58 59 61 63 63
352 350 353 352 351 351 354 356 345 335 328 321 312 290 294 259 246 156 129 125 102 96 92 55 33 32 26 27 46 57 60 65 66 63 56 54 56 57 54 54 59 64 67 69 69 69 71 71 69 71 73 77 83 88 92 95 93 89 86 84 82 82 85 86 86 85 89 93 92 89 77 72 81 89 89 84 79 77 75 72 68 64 62 62 63 65 67 67
360 357 358 360 359 358 1 3 355 348 348 339 326 169 111 136 162 155 145 142 132 132 132 86 33 35 34 35 48 53 54 57 61 61 59 58 58 58 55 52 53 59 64 70 75 75 77 78 72 68 70 73 79 83 88 91 89 84 80 78 77 81 89 95 97 95 94 95 95 92 85 85 92 92 89 86 83 81 79 75 70 66 65 65 67 68 70 70
8 6 5 7 9 7 7 10 6 2 11 5 15 123 114 137 162 163 152 148 145 148 147 123 57 48 46 45 49 49 49 51 56 59 59 58 56 56 57 55 53 56 62 70 79 83 82 79 74 71 73 76 83 87 88 88 86 83 81 80 82 86 93 98 100 99 98 95 90 87 88 91 94 92 90 89 88 86 82 79 74 71 69 70 71 71 71 71
15 15 13 14 17 17 15 14 14 16 33 38 50 102 114 133 159 166 155 152 149 152 152 143 113 79 65 55 51 49 48 47 51 56 58 55 51 55 60 59 59 60 65 76 85 89 88 84 81 79 80 83 86 87 86 84 83 83 86 89 92 95 96 97 97 97 96 94 89 86 90 94 93 92 92 91 89 87 84 81 79 76 74 74 73 72 71 70
21 22 20 19 20 24 23 20 19 24 49 67 73 89 106 123 147 157 152 153 151 149 146 139 121 96 84 70 55 52 50 45 45 48 54 53 46 53 63 61 64 69 74 83 90 92 92 89 86 83 81 81 83 84 84 84 85 88 91 94 96 97 96 94 93 92 92 93 92 90 91 94 94 92 90 88 86 85 83 82 81 79 77 75 74 71 69 68
27 26 24 25 26 27 30 28 27 29 48 81 94 97 104 116 134 146 150 156 157 149 129 118 109 96 89 83 70 58 52 45 42 39 47 53 45 52 66 65 69 75 80 87 92 94 94 91 87 83 80 78 80 83 87 89 91 92 93 94 95 94 92 91 91 92 93 93 93 93 94 95 95 92 89 86 84 84 84 82 81 80 79 76 73 70 68 66
33 31 28 31 33 33 36 38 39 39 45 74 102 108 112 121 132 139 147 156 156 147 120 108 106 98 89 87 82 74 62 51 45 36 42 52 48 55 70 73 76 79 82 86 91 94 94 92 89 85 81 78 79 83 87 90 91 92 93 93 93 93 93 94 95 95 95 94 94 97 101 103 101 98 94 91 88 87 86 84 81 79 79 76 71 69 67 65
41 40 35 36 39 39 41 47 50 50 51 65 94 109 114 121 127 130 137 141 138 133 117 106 105 100 87 78 76 81 79 64 53 48 50 55 55 63 76 80 83 83 82 84 89 92 93 93 90 87 84 81 80 81 83 86 87 89 91 93 94 94 94 95 95 94 94 96 98 102 107 109 106 102 99 95 93 91 89 85 79 75 75 73 69 68 66 64
52 49 45 43 45 45 46 52 57 58 61 67 84 103 112 118 123 128 130 128 125 122 113 105 101 97 92 80 68 75 79 74 71 70 66 62 64 74 82 84 86 86 86 85 87 90 92 92 90 86 84 84 83 82 83 85 87 88 89 92 94 95 95 95 95 95 94 95 98 101 103 104 102 100 98 94 92 92 92 87 79 72 71 70 67 64 62 61
63 60 56 53 51 51 51 56 62 65 67 73 81 94 107 116 122 127 127 124 122 118 111 107 102 98 98 95 84 76 77 84 90 86 75 72 76 84 87 87 88 90 90 89 88 89 92 93 92 89 87 87 85 84 84 86 88 89 89 90 92 94 96 98 99 97 95 94 93 93 93 93 92 91 89 88 87 88 89 86 78 69 65 63 60 56 53 52
78 73 66 62 59 58 58 61 67 70 72 77 83 89 99 108 114 118 119 119 120 118 114 112 111 109 109 107 104 100 95 95 95 89 82 83 88 93 93 91 91 92 93 93 92 93 95 96 97 96 94 92 91 90 90 90 90 90 89 89 92 95 98 99 97 95 93 93 91 89 89 88 86 83 82 82 81 82 83 81 75 66 59 54 49 45 43 43
99 90 79 72 68 66 66 68 71 74 77 80 85 89 95 100 105 110 111 113 114 115 114 114 113 112 112 110 108 108 107 102 96 92 92 94 99 102 99 96 95 93 92 94 96 97 98 98 99 98 97 95 95 95 95 95 94 93 92 92 92 92 94 94 92 92 93 95 96 97 94 89 84 79 77 77 77 78 78 75 71 63 55 50 43 37 35 36
127 109 94 83 77 73 73 75 76 78 81 84 87 90 94 97 101 103 104 105 108 108 108 109 109 110 109 106 105 107 107 104 101 102 104 105 108 107 102 101 98 93 91 94 97 99 99 96 94 94 94 92 90 90 92 93 94 96 97 94 89 88 90 92 92 93 94 95 97 98 93 86 80 76 74 73 74 74 73 70 65 57 51 46 39 32 29 31
152 134 113 96 86 80 79 81 82 83 86 88 90 92 95 97 100 101 101 102 104 106 107 109 109 109 107 105 106 105 104 104 106 108 109 110 111 107 105 105 103 99 98 100 102 104 102 97 94 92 91 89 87 87 89 91 95 98 97 93 91 91 93 94 94 92 90 90 90 89 86 81 75 72 71 70 71 70 68 65 59 50 44 39 33 27 24 25
172 161 139 117 100 91 88 88 89 90 90 92 93 94 96 98 100 100 101 101 103 105 107 108 108 109 109 107 104 101 101 104 108 109 108 109 109 107 108 109 108 107 105 103 102 102 100 98 97 94 90 88 88 90 91 90 91 90 90 90 90 90 92 92 90 87 86 86 85 84 82 78 72 68 66 66 67 66 64 61 55 45 35 28 23 19 18 19
182 179 163 144 124 109 101 97 96 96 96 95 95 96 98 99 101 101 100 100 101 103 104 105 108 111 110 106 101 99 101 105 107 107 107 107 107 108 109 109 108 107 104 99 97 99 99 99 97 91 87 86 88 90 89 87 85 84 84 85 86 88 92 91 88 86 86 86 84 83 83 79 74 66 61 58 58 59 58 56 50 40 30 22 15 12 12 13
189 189 181 168 152 132 118 109 105 105 104 102 100 100 101 102 103 102 100 100 101 102 104 105 106 104 101 100 102 103 105 105 104 104 105 104 104 104 104 105 106 106 105 102 102 105 105 102 97 92 89 88 88 89 89 88 88 87 85 84 84 87 89 90 91 91 90 87 84 81 80 79 74 68 60 53 50 50 50 48 44 35 26 20 13 10 9 10
194 194 190 186 177 157 137 124 116 112 111 109 107 106 105 105 105 102 99 100 102 102 101 101 100 97 95 97 101 104 104 102 103 103 102 103 103 102 101 102 103 103 105 106 109 109 107 103 99 95 92 89 87 87 87 88 89 90 89 88 86 84 82 83 86 88 87 84 80 75 73 71 68 63 58 51 44 41 39 37 35 30 23 17 12 9 8 8
197 196 194 193 191 180 157 140 130 122 117 113 111 110 108 107 105 102 100 102 102 99 96 94 95 98 98 97 99 101 101 102 104 105 106 106 105 105 104 103 102 102 104 107 109 108 105 102 98 95 93 89 86 84 83 82 83 86 88 90 90 86 81 77 74 73 71 68 65 63 62 63 61 57 55 52 44 38 35 32 27 25 22 16 10 7 7 6
199 199 196 196 196 193 179 159 145 133 125 119 115 115 113 110 107 104 105 106 102 98 97 97 98 98 98 98 100 102 103 106 109 109 111 110 108 109 111 110 108 106 105 105 106 105 102 99 96 94 93 93 91 89 86 82 81 82 84 89 91 89 86 80 72 63 59 56 53 49 48 48 48 46 47 50 49 43 37 32 25 19 17 15 11 7 5 5
200 201 199 198 199 199 193 177 161 148 137 130 124 122 120 117 113 109 109 108 105 104 104 105 105 102 100 101 103 104 105 107 109 110 112 112 111 112 113 111 108 107 107 104 103 101 99 97 96 97 98 98 98 95 90 86 84 84 85 85 84 82 83 81 75 67 61 58 56 50 45 43 39 34 31 31 36 40 37 32 26 20 15 12 10 9 8 7
201 202 202 201 200 202 201 192 178 166 155 146 138 132 128 123 119 115 112 111 111 111 110 109 109 107 106 106 106 106 106 105 105 108 109 109 110 112 111 107 105 104 103 101 98 96 93 92 95 96 97 97 96 92 90 89 88 85 83 80 76 73 72 69 67 63 58 55 54 51 46 44 39 33 27 20 21 27 30 28 24 20 17 12 8 8 8 7
202 202 205 204 202 203 204 200 192 184 175 168 160 149 139 132 126 120 116 116 116 116 115 113 111 109 110 111 111 108 106 105 104 104 103 103 103 104 105 103 100 98 96 94 92 89 87 88 91 94 96 96 93 91 93 91 85 80 75 72 70 67 63 59 54 53 49 45 46 44 40 40 39 39 37 29 22 21 21 20 16 13 13 10 7 4 3 3
205 204 206 207 205 203 204 203 200 196 192 188 181 167 155 149 141 131 125 123 122 120 121 120 118 115 115 116 116 113 109 105 101 98 97 98 98 97 97 97 95 92 90 89 87 86 87 91 94 94 94 94 94 97 97 88 79 74 69 66 63 60 56 49 44 45 44 41 41 41 38 37 37 40 40 36 29 22 17 13 7 5 7 6 3 360 357 355
207 207 209 210 208 206 206 205 203 203 203 202 196 184 174 168 162 154 145 141 138 132 128 130 129 127 125 122 120 116 110 106 101 97 93 93 94 93 90 87 86 85 84 85 86 87 85 85 86 85 84 88 90 90 88 86 81 74 66 60 56 55 53 46 39 38 40 37 35 35 37 36 32 29 25 21 20 18 13 6 358 355 356 357 357 355 352 349
210 210 211 212 210 208 209 207 206 207 209 209 206 199 193 187 181 176 169 163 161 152 145 147 144 138 137 134 129 121 113 109 106 100 93 89 88 87 82 78 76 75 73 74 79 82 74 62 63 67 66 70 73 68 69 76 77 68 57 48 42 41 42 42 37 31 28 26 24 24 26 25 22 18 11 4 2 1 0 358 354 349 347 347 348 348 346 344
213 213 214 215 214 212 211 210 208 209 212 214 213 209 207 204 198 193 188 182 180 176 171 170 166 156 149 145 140 135 124 115 110 106 99 91 89 86 79 71 72 71 62 50 46 53 48 27 24 42 41 43 50 50 53 63 63 58 49 38 32 30 28 28 26 22 17 12 10 10 10 9 9 8 2 354 351 348 347 348 347 345 342 340 340 341 340 339
213 215 215 216 217 216 214 213 212 211 213 215 217 217 217 216 212 206 202 198 194 193 193 188 183 178 172 163 155 154 148 132 125 126 117 101 92 86 74 53 38 41 35 18 1 1 14 360 353 11 23 31 42 44 49 58 55 49 43 32 27 25 21 16 13 11 8 3 358 357 355 351 349 352 351 345 341 339 339 340 340 339 337 335 334 334 335 336
212 214 215 217 219 219 218 216 215 214 214 215 217 219 221 222 221 215 210 209 207 205 207 203 195 193 192 187 183 186 185 169 159 174 197 195 19 21 16 328 320 322 324 333 324 315 331 343 334 343 4 24 41 44 49 54 46 34 29 23 21 19 13 6 1 359 357 353 348 345 343 339 335 336 339 336 332 333 334 334 334 333 332 331 331 331 332 334
212 214 215 216 219 220 220 219 218 217 215 215 216 219 222 225 225 221 216 214 214 214 214 212 205 203 204 207 207 206 209 208 199 215 244 258 276 282 278 279 288 295 301 307 302 297 306 323 313 315 333 347 10 25 18 9 4 357 356 358 1 358 351 344 342 343 341 337 333 331 332 330 326 325 328 328 325 327 328 327 326 326 326 327 328 329 329 329
213 214 215 216 218 220 221 221 221 219 217 215 215 218 222 226 227 225 221 219 219 221 219 215 211 209 208 211 216 217 220 226 226 232 246 255 265 270 268 267 272 283 293 294 288 288 293 298 292 293 299 301 299 299 296 303 312 318 326 330 327 324 323 324 326 326 325 324 322 321 323 323 319 317 320 321 321 322 322 321 320 320 320 321 322 323 322 322
215 215 216 217 218 220 222 222 223 222 219 216 216 217 220 225 227 227 226 224 225 227 227 223 221 219 216 215 218 222 226 231 234 235 239 245 252 257 257 256 263 275 277 276 276 278 281 282 281 283 283 283 282 281 281 286 296 305 309 308 305 306 309 312 313 311 311 313 314 315 317 317 314 313 314 316 317 318 318 317 317 317 317 317 317 317 317 317
217 218 218 218 220 221 222 223 224 224 222 219 219 218 219 222 225 227 228 228 229 230 231 230 229 228 226 221 220 224 227 230 233 232 232 235 241 247 250 249 251 256 259 264 267 271 277 280 278 279 282 284 282 281 282 284 286 291 297 299 298 298 303 307 307 305 306 308 309 310 311 310 309 309 311 313 315 316 316 315 315 316 317 316 316 318 320 321
218 219 219 219 221 222 223 224 225 225 224 222 221 221 220 222 224 225 228 230 231 232 232 231 232 232 230 226 223 226 231 234 235 234 230 229 235 243 249 250 248 249 253 260 266 271 278 283 283 283 286 287 286 284 283 286 288 290 294 296 295 296 301 303 304 304 306 307 306 306 306 307 307 308 309 312 314 315 315 315 316 318 318 318 321 325 328 328
219 220 220 221 222 223 224 226 227 227 225 224 223 223 223 223 224 225 226 229 232 234 233 232 233 233 232 230 227 228 236 241 242 242 238 234 236 243 249 252 254 256 257 259 266 271 275 279 282 283 285 285 284 282 281 284 287 291 294 294 294 296 298 297 296 297 299 302 303 303 305 306 308 309 310 310 311 313 315 316 318 320 322 323 326 331 333 333
220 221 221 222 223 223 224 227 229 229 227 225 224 225 225 223 223 224 225 226 229 233 234 234 235 236 235 234 232 230 235 240 244 247 247 244 243 245 250 253 254 257 258 259 264 268 270 273 277 279 282 283 283 283 282 282 284 286 290 292 294 297 299 298 298 298 300 301 303 304 307 308 308 309 308 308 311 316 319 320 320 323 327 330 331 333 336 338
221 221 221 222 223 224 224 227 229 230 230 226 224 225 227 225 224 224 225 226 227 231 234 234 235 237 238 237 237 235 236 240 244 250 253 253 251 249 250 253 255 258 262 262 264 266 267 268 269 272 276 278 281 284 285 284 284 285 288 290 293 296 298 299 301 303 304 304 306 308 308 308 310 309 307 310 317 323 323 322 323 327 332 334 334 336 340 342
222 221 221 222 223 225 226 227 229 231 232 229 225 226 228 228 227 225 225 227 227 230 233 234 235 237 238 238 238 238 239 242 245 249 254 256 256 254 252 252 255 260 265 266 266 267 268 268 269 271 273 276 279 282 284 285 286 288 290 292 293 294 296 297 300 302 304 305 306 307 307 308 311 308 307 315 323 323 321 323 326 331 335 335 335 336 338 339
223 223 222 222 223 224 227 228 229 230 232 231 228 226 228 230 230 228 227 227 228 229 233 235 235 238 239 239 240 240 240 242 244 247 251 254 257 257 256 255 254 256 261 265 268 269 270 271 272 271 272 274 277 280 282 284 285 287 290 291 292 293 294 295 297 299 301 302 303 303 306 310 310 305 308 317 318 316 320 324 328 332 334 333 332 332 333 333
222 224 223 223 223 224 226 229 230 230 231 231 230 228 228 229 232 232 230 230 230 229 231 234 235 238 241 242 242 242 242 243 244 245 248 251 254 256 257 257 256 255 257 262 266 270 271 271 271 271 272 274 276 278 280 282 283 286 288 290 291 292 292 293 295 297 298 298 299 302 307 310 307 305 310 316 314 314 318 321 326 330 329 329 328 328 329 330
Height
10718 10718 10718 10718 10717 10716 10715 10715 10714 10713 10713 10713 10712 10711 10710 10709 10708 10706 10704 10702 10701 10699 10695 10693 10692 10691 10690 10689 10686 10683 10680 10677 10674 10671 10669 10666 10662 10659 10655 10651 10647 10644 10640 10637 10634 10632 10631 10630 10629 10629 10629 10629 10630 10631 10634 10636 10639 10642 10645 10649 10653 10657 10661 10665 10669 10672 10675 10678 10681 10683 10686 10688 10691 10693 10694 10696 10698 10699 10700 10702 10703 10703 10704 10704 10704 10704 10703 10702
10716 10717 10717 10716 10716 10714 10713 10712 10711 10711 10711 10710 10709 10708 10707 10706 10704 10702 10700 10699 10698 10695 10692 10691 10690 10690 10688 10687 10684 10681 10678 10676 10673 10671 10668 10666 10662 10658 10655 10651 10647 10644 10640 10637 10634 10633 10632 10631 10630 10630 10630 10630 10631 10632 10634 10637 10640 10643 10647 10650 10654 10657 10661 10664 10667 10671 10674 10677 10680 10682 10685 10687 10689 10691 10693 10694 10696 10697 10699 10700 10701 10702 10702 10703 10703 10703 10702 10701
10715 10715 10715 10715 10714 10712 10711 10710 10709 10709 10709 10708 10706 10705 10703 10702 10701 10699 10698 10697 10695 10692 10690 10690 10690 10689 10687 10685 10683 10680 10678 10676 10673 10671 10668 10666 10662 10659 10655 10651 10648 10644 10641 10638 10636 10635 10634 10633 10633 10632 10632 10633 10634 10635 10637 10639 10642 10645 10649 10652 10654 10657 10661 10664 10667 10670 10673 10676 10679 10681 10684 10686 10688 10690 10692 10694 10695 10697 10698 10699 10700 10701 10702 10702 10702 10701 10700 10698
10714 10713 10713 10712 10711 10710 10709 10708 10708 10707 10706 10705 10703 10701 10700 10699 10698 10696 10695 10694 10692 10689 10689 10690 10689 10687 10686 10684 10682 10680 10679 10677 10675 10672 10669 10666 10663 10660 10656 10653 10650 10646 10643 10640 10639 10638 10637 10637 10636 10636 10636 10637 10638 10638 10639 10641 10644 10647 10651 10655 10655 10658 10661 10664 10668 10671 10674 10677 10679 10682 10684 10687 10689 10691 10692 10694 10696 10697 10699 10700 10701 10701 10702 10701 10700 10699 10697 10695
10712 10712 10711 10710 10709 10708 10707 10706 10706 10705 10704 10702 10700 10699 10698 10697 10695 10694 10693 10692 10690 10688 10688 10689 10688 10686 10685 10683 10682 10681 10679 10678 10676 10674 10671 10667 10664 10661 10658 10655 10652 10650 10647 10644 10643 10642 10641 10641 10640 10639 10640 10641 10641 10641 10642 10645 10647 10649 10654 10658 10658 10660 10663 10666 10670 10673 10676 10678 10681 10683 10686 10688 10689 10691 10693 10695 10697 10698 10699 10700 10701 10701 10700 10699 10698 10697 10695 10694
10711 10710 10710 10709 10708 10706 10705 10705 10704 10703 10701 10699 10697 10697 10696 10695 10693 10692 10691 10690 10689 10688 10687 10688 10688 10686 10684 10683 10683 10682 10681 10680 10678 10675 10672 10669 10666 10664 10661 10658 10656 10654 10651 10649 10648 10646 10645 10644 10643 10643 10645 10646 10645 10646 10648 10650 10652 10654 10658 10661 10662 10664 10667 10670 10673 10675 10678 10680 10683 10685 10687 10689 10691 10692 10694 10696 10697 10698 10699 10699 10700 10699 10698 10697 10696 10695 10694 10693
10710 10709 10708 10707 10706 10705 10704 10703 10702 10700 10698 10697 10696 10695 10694 10693 10691 10690 10690 10689 10688 10687 10686 10686 10687 10687 10685 10685 10685 10685 10684 10682 10679 10676 10673 10671 10668 10666 10664 10662 10659 10657 10655 10654 10652 10651 10650 10649 10649 10650 10651 10651 10650 10652 10653 10655 10658 10660 10662 10665 10667 10668 10671 10673 10675 10678 10681 10683 10685 10687 10689 10691 10692 10693 10695 10697 10698 10698 10698 10698 10698 10698 10697 10696 10695 10694 10693 10691
10709 10708 10707 10706 10705 10704 10703 10702 10700 10698 10696 10695 10694 10693 10693 10691 10690 10689 10689 10688 10687 10687 10686 10686 10687 10687 10687 10687 10687 10687 10686 10684 10681 10678 10675 10673 10671 10669 10667 10665 10663 10661 10660 10660 10658 10657 10655 10654 10655 10655 10654 10654 10655 10657 10658 10660 10663 10665 10666 10668 10670 10671 10674 10676 10678 10681 10683 10685 10687 10689 10691 10692 10693 10694 10696 10697 10697 10697 10697 10698 10698 10697 10696 10695 10694 10693 10692 10690
10708 10707 10706 10705 10704 10703 10701 10700 10698 10696 10695 10694 10693 10692 10691 10690 10689 10688 10688 10688 10687 10687 10686 10686 10687 10688 10689 10689 10689 10689 10688 10686 10683 10681 10678 10676 10674 10672 10670 10668 10666 10665 10664 10664 10663 10662 10661 10659 10659 10658 10658 10659 10660 10661 10663 10665 10666 10668 10669 10671 10673 10675 10677 10679 10681 10683 10685 10687 10689 10691 10693 10693 10694 10695 10696 10697 10697 10697 10697 10697 10697 10696 10695 10694 10694 10693 10691 10690
10707 10706 10705 10704 10703 10702 10700 10699 10697 10695 10694 10693 10692 10691 10690 10689 10689 10688 10687 10687 10687 10687 10688 10688 10688 10689 10690 10690 10691 10691 10689 10687 10685 10683 10682 10679 10677 10675 10673 10670 10669 10667 10666 10665 10665 10665 10665 10665 10664 10664 10663 10663 10663 10665 10667 10669 10669 10671 10672 10674 10676 10678 10680 10681 10682 10684 10687 10689 10691 10693 10694 10695 10695 10695 10696 10697 10697 10697 10697 10697 10696 10696 10695 10695 10694 10693 10692 10691
10707 10706 10705 10703 10702 10701 10700 10698 10696 10695 10693 10692 10691 10690 10690 10689 10688 10688 10687 10688 10688 10688 10689 10689 10690 10690 10691 10692 10693 10692 10690 10688 10687 10686 10684 10683 10681 10679 10676 10673 10671 10669 10668 10668 10668 10668 10669 10670 10670 10669 10668 10667 10667 10669 10670 10672 10673 10674 10675 10677 10678 10680 10681 10683 10684 10685 10688 10690 10693 10695 10696 10696 10696 10696 10697 10697 10697 10697 10697 10697 10697 10697 10696 10696 10695 10694 10693 10692
10706 10705 10704 10702 10701 10700 10699 10698 10696 10694 10692 10691 10690 10690 10689 10689 10688 10688 10688 10688 10688 10689 10690 10691 10691 10692 10692 10693 10694 10693 10691 10690 10689 10687 10686 10685 10683 10681 10680 10678 10675 10673 10672 10672 10672 10672 10673 10674 10674 10673 10673 10672 10672 10673 10674 10675 10676 10677 10678 10679 10680 10681 10682 10684 10686 10688 10690 10692 10695 10697 10697 10697 10698 10698 10698 10698 10697 10697 10697 10697 10698 10698 10698 10697 10697 10696 10695 10693
10706 10705 10704 10702 10701 10699 10698 10697 10696 10694 10692 10691 10690 10689 10689 10689 10688 10688 10688 10689 10689 10690 10691 10692 10692 10693 10693 10693 10694 10693 10693 10692 10690 10689 10688 10687 10686 10684 10683 10681 10679 10677 10675 10675 10675 10676 10676 10677 10678 10677 10676 10676 10676 10676 10677 10678 10678 10679 10679 10680 10681 10682 10684 10686 10688 10691 10693 10695 10697 10698 10699 10699 10699 10699 10698 10698 10698 10698 10698 10698 10699 10699 10700 10699 10698 10697 10696 10695
10706 10705 10704 10702 10700 10699 10697 10697 10695 10694 10692 10691 10690 10689 10689 10689 10688 10688 10689 10689 10690 10691 10692 10693 10693 10693 10694 10694 10694 10694 10694 10694 10693 10691 10690 10689 10688 10686 10685 10683 10681 10680 10678 10678 10678 10679 10679 10679 10680 10680 10679 10679 10679 10679 10679 10679 10679 10680 10681 10682 10684 10686 10687 10688 10690 10693 10695 10698 10699 10700 10700 10701 10701 10701 10700 10699 10699 10699 10699 10700 10700 10701 10701 10701 10700 10699 10698 10697
10706 10705 10703 10702 10701 10699 10697 10696 10695 10694 10692 10691 10690 10689 10689 10689 10689 10688 10689 10690 10691 10692 10693 10693 10694 10694 10695 10695 10695 10695 10695 10695 10695 10694 10693 10692 10690 10688 10687 10685 10684 10682 10681 10680 10680 10681 10682 10682 10682 10682 10683 10683 10682 10682 10682 10682 10681 10682 10683 10685 10687 10689 10691 10692 10693 10695 10697 10700 10701 10701 10702 10703 10703 10703 10702 10701 10701 10701 10701 10702 10702 10703 10703 10703 10702 10701 10700 10699
10707 10705 10704 10702 10701 10699 10697 10696 10695 10694 10692 10691 10690 10690 10690 10689 10689 10689 10689 10690 10691 10692 10693 10694 10695 10695 10696 10696 10696 10696 10695 10696 10697 10697 10695 10694 10693 10691 10689 10687 10686 10685 10683 10682 10682 10683 10684 10684 10684 10685 10686 10686 10686 10685 10685 10684 10684 10685 10687 10689 10691 10693 10695 10696 10697 10698 10700 10701 10702 10703 10704 10704 10705 10705 10704 10703 10703 10702 10703 10704 10704 10705 10705 10705 10705 10704 10703 10701
10707 10705 10704 10702 10701 10699 10698 10696 10695 10694 10693 10692 10691 10690 10690 10690 10690 10690 10690 10691 10692 10693 10694 10694 10695 10696 10696 10697 10697 10697 10697 10698 10698 10699 10698 10696 10695 10694 10691 10689 10689 10688 10687 10685 10685 10685 10686 10687 10687 10688 10689 10689 10688 10687 10687 10688 10689 10690 10691 10693 10695 10697 10698 10700 10701 10702 10703 10703 10704 10705 10706 10706 10707 10707 10706 10705 10704 10704 10705 10705 10706 10707 10707 10707 10707 10706 10705 10704
10707 10706 10704 10703 10701 10700 10698 10697 10695 10694 10693 10692 10691 10691 10691 10691 10691 10691 10692 10692 10693 10694 10695 10695 10696 10696 10697 10698 10698 10699 10699 10699 10699 10700 10700 10698 10697 10696 10693 10692 10691 10691 10691 10689 10688 10688 10688 10689 10690 10690 10691 10692 10692 10691 10691 10692 10693 10694 10695 10697 10698 10700 10701 10702 10704 10705 10706 10706 10707 10707 10708 10709 10709 10708 10707 10706 10706 10706 10706 10707 10708 10708 10709 10709 10709 10708 10707 10706
10708 10706 10705 10704 10702 10701 10699 10698 10696 10695 10694 10693 10692 10691 10691 10691 10692 10692 10693 10694 10695 10695 10696 10697 10697 10697 10697 10697 10698 10699 10700 10700 10701 10701 10701 10700 10699 10698 10696 10694 10694 10694 10694 10693 10692 10691 10691 10691 10691 10692 10693 10694 10695 10696 10696 10696 10697 10698 10699 10700 10702 10703 10704 10705 10707 10708 10708 10709 10710 10711 10712 10712 10711 10710 10709 10708 10708 10708 10708 10709 10710 10710 10710 10711 10711 10710 10709 10708
10709 10707 10706 10704 10703 10702 10700 10699 10697 10696 10695 10694 10693 10691 10691 10691 10692 10693 10694 10695 10696 10697 10697 10698 10698 10698 10698 10698 10698 10699 10700 10701 10702 10703 10703 10702 10701 10701 10699 10697 10697 10697 10697 10697 10695 10694 10694 10693 10693 10694 10695 10697 10699 10700 10700 10700 10701 10702 10703 10704 10705 10706 10707 10708 10709 10710 10711 10712 10712 10713 10714 10715 10714 10712 10711 10711 10710 10710 10710 10711 10712 10712 10712 10712 10712 10712 10710 10709
10710 10708 10707 10705 10704 10703 10702 10700 10698 10697 10696 10695 10694 10693 10692 10692 10692 10693 10694 10695 10697 10698 10698 10699 10699 10699 10699 10699 10699 10700 10700 10701 10703 10704 10704 10703 10703 10703 10702 10700 10700 10700 10701 10700 10699 10698 10697 10696 10696 10698 10699 10700 10702 10703 10704 10704 10705 10706 10707 10708 10709 10709 10710 10710 10712 10713 10713 10714 10714 10715 10716 10716 10716 10714 10713 10713 10713 10713 10713 10713 10713 10714 10714 10714 10714 10713 10712 10711
10711 10710 10708 10707 10705 10704 10703 10702 10700 10698 10697 10696 10696 10695 10694 10693 10693 10694 10695 10696 10697 10698 10699 10700 10700 10701 10701 10701 10701 10701 10701 10702 10704 10705 10706 10705 10705 10705 10704 10704 10704 10704 10703 10703 10703 10703 10702 10700 10700 10701 10703 10704 10705 10706 10707 10707 10708 10709 10710 10711 10712 10712 10712 10713 10714 10715 10715 10716 10716 10716 10717 10717 10717 10716 10715 10714 10715 10715 10715 10714 10715 10715 10715 10716 10715 10714 10713 10712
10712 10711 10710 10708 10707 10706 10704 10703 10702 10700 10699 10698 10697 10696 10696 10695 10695 10695 10696 10697 10698 10699 10699 10700 10701 10702 10702 10703 10703 10703 10704 10704 10704 10705 10707 10707 10707 10707 10706 10707 10708 10707 10707 10706 10706 10707 10706 10705 10704 10704 10705 10707 10708 10709 10710 10711 10711 10711 10712 10713 10714 10715 10715 10715 10716 10717 10717 10718 10718 10718 10718 10718 10717 10717 10716 10716 10716 10716 10716 10716 10716 10717 10717 10717 10716 10716 10714 10713
10713 10712 10711 10710 10709 10707 10706 10705 10704 10702 10701 10700 10699 10698 10698 10697 10697 10697 10698 10698 10699 10699 10700 10701 10702 10702 10703 10704 10705 10705 10706 10706 10705 10706 10708 10709 10710 10710 10708 10709 10711 10711 10710 10710 10710 10710 10710 10709 10708 10708 10708 10709 10710 10711 10712 10713 10713 10714 10714 10715 10716 10717 10717 10717 10717 10718 10719 10719 10720 10720 10720 10719 10718 10717 10717 10717 10717 10717 10717 10717 10717 10718 10718 10718 10717 10716 10715 10713
10713 10713 10712 10711 10710 10709 10708 10707 10706 10705 10704 10703 10702 10701 10700 10700 10699 10699 10699 10700 10700 10701 10701 10702 10703 10703 10704 10705 10706 10707 10707 10706 10707 10709 10710 10711 10712 10711 10710 10711 10714 10715 10714 10714 10714 10714 10714 10714 10713 10712 10712 10712 10713 10714 10715 10715 10716 10716 10717 10717 10717 10718 10719 10719 10719 10719 10720 10721 10721 10721 10721 10720 10718 10718 10718 10718 10718 10718 10718 10717 10718 10719 10719 10718 10718 10717 10715 10713
10714 10714 10713 10713 10712 10711 10710 10709 10708 10707 10706 10705 10705 10704 10703 10703 10702 10701 10701 10702 10703 10703 10703 10703 10704 10705 10706 10707 10708 10708 10708 10708 10710 10711 10712 10713 10714 10713 10713 10714 10716 10717 10717 10717 10717 10717 10717 10717 10717 10716 10716 10715 10716 10718 10718 10718 10719 10719 10719 10719 10719 10720 10721 10720 10720 10720 10721 10722 10722 10722 10721 10720 10719 10719 10720 10720 10719 10719 10718 10718 10718 10719 10719 10719 10718 10717 10715 10713
10714 10714 10714 10714 10713 10712 10712 10711 10710 10709 10709 10708 10707 10707 10706 10706 10705 10704 10704 10705 10705 10705 10705 10705 10706 10707 10708 10709 10709 10709 10710 10711 10713 10714 10715 10715 10715 10715 10716 10716 10717 10718 10718 10719 10720 10720 10719 10719 10719 10719 10718 10718 10719 10721 10721 10721 10721 10721 10721 10721 10721 10721 10722 10722 10721 10721 10722 10722 10723 10723 10722 10721 10720 10720 10721 10721 10720 10719 10718 10718 10719 10720 10720 10719 10718 10717 10715 10713
10713 10714 10714 10714 10714 10714 10713 10712 10712 10711 10711 10710 10710 10709 10709 10709 10708 10707 10707 10707 10708 10708 10708 10708 10709 10710 10710 10710 10710 10710 10713 10715 10715 10716 10716 10717 10717 10717 10718 10718 10719 10719 10719 10720 10722 10722 10722 10722 10722 10721 10721 10721 10722 10723 10723 10723 10723 10723 10723 10723 10722 10723 10723 10723 10722 10723 10723 10723 10724 10724 10723 10722 10721 10722 10722 10722 10721 10720 10719 10719 10719 10720 10720 10719 10718 10717 10715 10713
10712 10713 10714 10715 10715 10715 10714 10714 10714 10713 10713 10712 10712 10712 10712 10712 10711 10710 10709 10709 10710 10711 10710 10711 10712 10713 10712 10711 10711 10713 10715 10717 10717 10718 10718 10719 10720 10720 10720 10721 10721 10721 10721 10722 10724 10725 10724 10724 10723 10723 10723 10724 10725 10725 10725 10725 10725 10725 10725 10725 10724 10725 10724 10724 10724 10724 10725 10724 10724 10725 10725 10723 10723 10723 10723 10723 10722 10721 10721 10720 10720 10720 10719 10719 10718 10716 10715 10713
10711 10712 10713 10714 10715 10715 10715 10715 10715 10715 10715 10714 10714 10714 10714 10714 10714 10711 10711 10712 10713 10713 10713 10713 10714 10714 10714 10714 10714 10716 10718 10718 10720 10720 10721 10722 10722 10722 10723 10723 10723 10724 10724 10725 10726 10727 10727 10726 10726 10725 10726 10726 10727 10727 10727 10727 10727 10727 10727 10727 10726 10726 10726 10725 10725 10725 10726 10726 10725 10726 10726 10724 10724 10724 10724 10723 10723 10723 10722 10721 10721 10720 10719 10718 10717 10716 10715 10713
10710 10711 10712 10713 10714 10715 10715 10716 10716 10716 10716 10716 10715 10716 10716 10716 10715 10713 10713 10715 10716 10715 10715 10715 10716 10717 10717 10717 10718 10719 10720 10721 10723 10723 10723 10724 10724 10724 10725 10726 10726 10727 10728 10728 10729 10729 10729 10729 10728 10728 10728 10729 10729 10729 10728 10728 10728 10728 10728 10729 10728 10728 10727 10727 10726 10726 10726 10726 10726 10726 10726 10725 10725 10725 10725 10725 10725 10724 10723 10722 10722 10721 10719 10718 10717 10716 10714 10712
10709 10710 10711 10712 10713 10714 10715 10716 10716 10716 10717 10717 10717 10717 10717 10717 10717 10716 10717 10718 10717 10716 10717 10718 10720 10721 10720 10721 10722 10722 10723 10724 10725 10726 10726 10726 10727 10727 10728 10728 10728 10729 10730 10731 10731 10731 10731 10731 10730 10730 10731 10731 10731 10731 10730 10730 10730 10730 10730 10730 10730 10729 10729 10728 10728 10728 10727 10727 10727 10727 10726 10725 10725 10726 10726 10726 10726 10725 10724 10723 10722 10721 10720 10719 10717 10716 10714 10713
10707 10709 10710 10711 10713 10714 10715 10716 10717 10717 10717 10717 10718 10718 10719 10719 10718 10718 10719 10719 10718 10718 10719 10720 10722 10723 10723 10724 10725 10725 10726 10727 10728 10728 10728 10728 10729 10730 10730 10730 10730 10731 10732 10733 10733 10733 10733 10733 10733 10733 10733 10733 10733 10732 10732 10731 10731 10731 10732 10731 10731 10730 10730 10730 10730 10730 10729 10729 10728 10728 10727 10726 10726 10726 10725 10725 10725 10725 10724 10723 10723 10721 10720 10719 10718 10716 10715 10713
10706 10707 10709 10710 10712 10713 10714 10715 10717 10717 10717 10718 10718 10719 10720 10720 10720 10720 10720 10721 10721 10721 10721 10722 10724 10724 10725 10727 10728 10728 10728 10729 10730 10731 10731 10731 10731 10732 10732 10732 10732 10733 10733 10734 10734 10734 10734 10734 10735 10734 10735 10734 10734 10733 10733 10733 10733 10733 10733 10732 10731 10731 10731 10731 10731 10731 10731 10730 10729 10729 10728 10727 10727 10727 10726 10725 10724 10724 10723 10723 10722 10722 10721 10719 10718 10716 10715 10714
10704 10705 10707 10708 10710 10711 10713 10714 10716 10717 10717 10718 10719 10720 10721 10721 10722 10721 10722 10723 10724 10723 10723 10724 10726 10726 10727 10728 10730 10730 10730 10731 10732 10733 10733 10733 10733 10734 10734 10733 10734 10734 10735 10735 10735 10735 10735 10736 10736 10736 10736 10735 10735 10735 10734 10734 10734 10734 10733 10732 10732 10732 10732 10732 10732 10731 10731 10730 10730 10729 10729 10728 10728 10728 10727 10726 10725 10724 10723 10723 10722 10722 10721 10720 10718 10717 10715 10714
10702 10704 10705 10706 10708 10709 10711 10713 10714 10716 10717 10718 10719 10720 10721 10721 10722 10723 10723 10725 10726 10726 10726 10726 10726 10728 10729 10730 10731 10732 10732 10732 10734 10734 10735 10735 10735 10736 10736 10735 10735 10735 10736 10736 10736 10737 10737 10737 10737 10737 10736 10736 10736 10736 10735 10735 10734 10734 10733 10733 10733 10733 10733 10732 10732 10732 10731 10731 10730 10730 10729 10729 10729 10729 10728 10727 10726 10725 10724 10723 10723 10722 10721 10720 10718 10716 10715 10713
10700 10701 10703 10704 10706 10708 10710 10711 10713 10714 10715 10717 10718 10719 10720 10721 10722 10723 10724 10725 10726 10727 10727 10728 10728 10729 10730 10731 10732 10733 10732 10733 10734 10735 10736 10736 10736 10737 10737 10737 10736 10736 10737 10737 10737 10738 10738 10737 10737 10737 10736 10736 10736 10736 10735 10735 10735 10735 10734 10734 10734 10734 10733 10733 10733 10732 10731 10731 10731 10731 10730 10730 10729 10728 10727 10726 10726 10725 10724 10723 10722 10720 10719 10719 10718 10716 10714 10713
10697 10699 10700 10702 10704 10706 10708 10709 10711 10713 10714 10715 10717 10718 10719 10720 10722 10723 10724 10725 10726 10727 10728 10729 10729 10730 10730 10731 10732 10733 10733 10733 10734 10735 10736 10737 10737 10738 10738 10738 10737 10738 10738 10738 10738 10738 10738 10737 10737 10737 10736 10736 10736 10736 10735 10735 10735 10735 10734 10734 10734 10733 10733 10733 10733 10732 10732 10731 10731 10731 10730 10730 10729 10728 10727 10726 10725 10724 10723 10723 10721 10719 10718 10717 10716 10715 10714 10712
10694 10696 10698 10700 10702 10704 10705 10707 10709 10711 10712 10714 10715 10717 10718 10719 10721 10722 10723 10724 10725 10726 10727 10728 10729 10730 10731 10731 10732 10732 10733 10733 10734 10735 10736 10737 10737 10738 10738 10738 10738 10738 10738 10738 10738 10738 10738 10737 10737 10737 10736 10736 10736 10736 10735 10735 10735 10735 10735 10734 10734 10734 10733 10733 10733 10732 10732 10731 10731 10730 10730 10729 10729 10728 10727 10726 10724 10723 10723 10722 10721 10719 10717 10716 10714 10713 10712 10710
10691 10693 10695 10697 10699 10701 10703 10705 10707 10709 10710 10712 10714 10716 10717 10718 10719 10721 10722 10723 10724 10725 10726 10727 10728 10730 10730 10731 10731 10732 10732 10733 10734 10735 10736 10736 10737 10737 10738 10738 10738 10738 10738 10738 10738 10738 10738 10737 10737 10736 10736 10736 10736 10736 10735 10735 10735 10735 10735 10735 10734 10734 10733 10733 10732 10732 10731 10731 10730 10729 10729 10728 10728 10727 10727 10726 10725 10724 10723 10722 10720 10719 10717 10715 10714 10712 10710 10708
10688 10690 10692 10694 10696 10698 10700 10702 10704 10706 10708 10710 10712 10715 10716 10716 10717 10719 10721 10722 10723 10724 10725 10726 10727 10728 10729 10730 10731 10731 10732 10732 10733 10734 10735 10735 10736 10736 10737 10737 10737 10737 10737 10738 10737 10737 10737 10737 10737 10736 10736 10736 10736 10736 10736 10736 10735 10735 10735 10735 10735 10734 10734 10733 10733 10732 10732 10731 10730 10729 10728 10727 10726 10726 10726 10725 10724 10724 10723 10721 10720 10719 10717 10715 10713 10710 10708 10706
10684 10686 10689 10691 10693 10695 10697 10700 10702 10703 10705 10708 10710 10713 10714 10715 10716 10717 10719 10720 10721 10723 10724 10725 10726 10727 10728 10729 10729 10730 10731 10731 10732 10733 10734 10734 10735 10735 10736 10736 10736 10736 10737 10737 10737 10736 10736 10737 10736 10736 10736 10736 10736 10736 10736 10735 10735 10735 10735 10735 10735 10734 10734 10734 10733 10733 10732 10731 10730 10730 10729 10728 10726 10725 10725 10725 10724 10723 10722 10721 10720 10718 10717 10715 10712 10710 10707 10705
10681 10683 10685 10687 10690 10692 10694 10696 10698 10700 10703 10705 10708 10710 10712 10713 10714 10716 10717 10719 10720 10721 10722 10723 10724 10725 10726 10727 10728 10728 10729 10730 10731 10732 10733 10733 10734 10734 10734 10735 10735 10735 10736 10736 10736 10735 10736 10736 10736 10736 10736 10736 10736 10735 10735 10735 10735 10735 10735 10735 10734 10734 10734 10733 10733 10732 10731 10731 10730 10729 10729 10727 10726 10724 10724 10724 10723 10722 10721 10720 10718 10717 10715 10713 10712 10709 10707 10704
10678 10680 10682 10684 10686 10688 10690 10693 10695 10697 10700 10703 10705 10707 10708 10710 10712 10714 10716 10717 10718 10719 10720 10721 10722 10723 10724 10725 10726 10727 10727 10728 10729 10730 10731 10732 10732 10732 10733 10733 10734 10734 10734 10734 10734 10734 10735 10735 10735 10735 10735 10735 10735 10735 10735 10735 10735 10735 10735 10734 10734 10733 10733 10732 10732 10731 10731 10730 10729 10728 10728 10727 10725 10723 10723 10722 10721 10720 10719 10718 10716 10715 10713 10711 10709 10707 10705 10703
10675 10676 10679 10681 10683 10685 10687 10689 10691 10694 10697 10700 10702 10703 10705 10707 10709 10711 10713 10714 10716 10717 10718 10719 10720 10721 10722 10723 10724 10725 10725 10726 10727 10728 10729 10730 10730 10730 10731 10732 10733 10733 10733 10733 10733 10733 10733 10734 10735 10735 10734 10734 10734 10734 10734 10734 10734 10734 10734 10733 10733 10732 10732 10731 10731 10730 10729 10729 10728 10728 10727 10726 10724 10722 10721 10720 10719 10718 10716 10715 10713 10712 10710 10707 10706 10704 10702 10700
10671 10673 10676 10678 10680 10682 10684 10686 10687 10690 10693 10696 10698 10701 10703 10704 10706 10709 10710 10712 10714 10715 10716 10717 10718 10718 10720 10721 10722 10723 10724 10724 10724 10725 10726 10727 10728 10728 10729 10730 10731 10732 10732 10732 10732 10732 10732 10733 10733 10734 10733 10733 10733 10733 10733 10733 10733 10733 10733 10732 10731 10731 10731 10730 10729 10728 10728 10727 10727 10726 10726 10724 10722 10721 10719 10718 10717 10715 10713 10711 10710 10709 10707 10704 10702 10701 10700 10698
10667 10670 10673 10675 10677 10679 10681 10682 10684 10687 10690 10693 10695 10698 10700 10702 10704 10706 10707 10709 10711 10712 10713 10714 10714 10716 10717 10719 10720 10721 10722 10722 10722 10723 10724 10725 10726 10726 10727 10728 10729 10730 10730 10730 10731 10731 10731 10731 10732 10732 10732 10731 10731 10731 10731 10731 10731 10731 10731 10730 10729 10729 10729 10728 10728 10727 10726 10726 10725 10724 10723 10722 10720 10719 10717 10716 10715 10713 10711 10709 10707 10706 10704 10703 10701 10699 10698 10697
10663 10666 10669 10671 10674 10676 10677 10678 10680 10683 10685 10689 10692 10694 10696 10698 10700 10702 10704 10706 10707 10708 10709 10710 10712 10713 10714 10716 10718 10719 10720 10720 10720 10720 10721 10722 10723 10724 10725 10726 10727 10727 10728 10728 10729 10729 10730 10730 10730 10730 10730 10729 10729 10729 10729 10729 10729 10729 10729 10728 10728 10727 10727 10726 10725 10725 10724 10724 10723 10722 10721 10719 10718 10716 10714 10713 10712 10711 10709 10707 10705 10704 10703 10702 10700 10699 10697 10696
10659 10662 10665 10668 10670 10672 10673 10675 10677 10679 10681 10685 10688 10690 10692 10694 10696 10698 10700 10702 10703 10704 10705 10707 10709 10710 10711 10713 10715 10716 10717 10717 10718 10718 10718 10720 10721 10722 10722 10723 10724 10725 10725 10726 10727 10727 10727 10728 10728 10728 10728 10727 10727 10726 10726 10727 10727 10727 10727 10727 10726 10725 10724 10723 10722 10722 10721 10720 10719 10719 10717 10716 10715 10713 10711 10710 10710 10709 10707 10705 10703 10702 10701 10700 10699 10697 10696 10694
10655 10657 10661 10664 10666 10668 10670 10672 10674 10676 10678 10681 10684 10686 10688 10690 10692 10694 10696 10698 10699 10701 10702 10704 10705 10706 10708 10710 10711 10713 10714 10715 10715 10716 10716 10717 10717 10719 10720 10721 10722 10722 10722 10723 10723 10724 10724 10725 10726 10726 10726 10725 10725 10724 10724 10724 10724 10725 10725 10724 10724 10723 10723 10721 10720 10719 10718 10717 10717 10716 10714 10713 10712 10710 10709 10709 10708 10707 10705 10704 10702 10701 10700 10699 10697 10696 10694 10693
10650 10653 10656 10659 10662 10664 10666 10668 10670 10672 10675 10677 10680 10682 10684 10686 10688 10690 10692 10693 10695 10697 10698 10700 10702 10703 10705 10707 10708 10710 10711 10712 10713 10713 10714 10714 10714 10715 10716 10718 10719 10720 10720 10720 10720 10721 10721 10722 10723 10723 10723 10723 10723 10722 10722 10722 10722 10722 10722 10722 10721 10721 10720 10719 10718 10717 10715 10715 10714 10713 10712 10711 10710 10708 10707 10707 10706 10705 10704 10702 10701 10700 10699 10697 10696 10694 10693 10692
10646 10648 10651 10654 10657 10660 10662 10664 10667 10669 10671 10673 10676 10678 10680 10682 10683 10685 10688 10689 10691 10693 10695 10696 10699 10700 10701 10703 10705 10706 10708 10708 10709 10710 10710 10710 10710 10711 10712 10714 10715 10716 10717 10717 10717 10717 10718 10718 10719 10719 10720 10721 10720 10720 10719 10719 10719 10719 10719 10719 10719 10718 10718 10717 10715 10714 10713 10712 10711 10711 10710 10709 10708 10706 10706 10705 10704 10703 10702 10701 10700 10699 10697 10696 10694 10693 10692 10690